Regional Weather Roundup
Issued by NWS

Home | Current Version | Previous Version | Text Only | Print | Product List | Glossary On
Versions: 1 2 3 4 5 6 7 8 9 10 11 12 13 14 15 16 17 18 19 20 21 22 23 24 25 26 27 28 29 30 31 32 33 34 35 36 37 38 39 40 41 42 43 44 45 46 47 48 49 50
000
ASUS43 KFSD 251210
RWRSD

WEATHER ROUNDUP FOR SOUTH DAKOTA
NATIONAL WEATHER SERVICE SIOUX FALLS SD
700 AM CDT FRI JUL 25 2014

NOTE: "FAIR" INDICATES FEW OR NO CLOUDS BELOW 12,000 FEET WITH NO
SIGNIFICANT WEATHER AND/OR OBSTRUCTIONS TO VISIBILITY.


SDZ001>005-009-010-012>017-251300-
NORTHWEST AND NORTH CENTRAL SOUTH DAKOTA

CITY           SKY/WX    TMP DP  RH WIND       PRES   REMARKS
BUFFALO          N/A     52  46  80 SW5       29.89R
FAITH            N/A     62  50  64 N13       29.89R
MOBRIDGE       MOCLDY    66  65  96 NW13      29.77R
$$

SDZ012>016-024>037-041>051-057-063-072>074-251300-
SOUTHWEST AND SOUTH CENTRAL SOUTH DAKOTA

CITY           SKY/WX    TMP DP  RH WIND       PRES   REMARKS
RAPID CTY ARPT CLEAR     63  37  38 NW16      29.96R
PIERRE         CLEAR     69  66  90 N14       29.76R
CUSTER         CLEAR     60  37  42 CALM      30.08R
ELLSWORTH AFB  CLEAR     64  37  36 NW18      29.95R
PHILIP         CLEAR     66  55  67 NW12      29.87R
PINE RIDGE     CLEAR     61  47  59 N9        29.96R
WINNER         FAIR      69  61  75 NW10      29.76R
$$

SDZ004>011-016>023-039-040-251300-
NORTHEAST SOUTH DAKOTA

CITY           SKY/WX    TMP DP  RH WIND       PRES   REMARKS
ABERDEEN       CLEAR     64  64 100 N5        29.72R
WATERTOWN      MOCLDY    65  62  90 S17       29.72F
SISSETON         N/A     64  63  96 E5        29.73R
$$

SDZ017-020-022-023-036>040-048>070-251300-
SOUTHEAST SOUTH DAKOTA

CITY           SKY/WX    TMP DP  RH WIND       PRES   REMARKS
SIOUX FALLS    PTCLDY    66  61  84 SE18G28   29.79F
HURON          PTCLDY    67  63  87 CALM      29.76R
CHAMBERLAIN    PTCLDY    70  64  80 N6        29.75R
MITCHELL       PTCLDY    67  63  87 SE16      29.73R
YANKTON        CLEAR     66  63  88 E10G18    29.77F
$$

ABBREVIATIONS USED IN REMARKS
   TC - TEMPERATURE IN CELSIUS
  WCI - WIND CHILL INDEX
   HX - HEAT INDEX
  VSB - VISIBILITY



USA.gov is the U.S. government's official web portal to all federal, state and local government web resources and services.